Simultaneous Nadir Overpasses (SNOs) Predictions

Prediction of SNOs between GOES-17 and METOP-B Satellite Orbit:

Table of predicted SNOs for the next 14.0 days since TLE Epoch: 6/22/2024
Index Date Time (GOES-17) GOES-17 Lat,Lon METOP-B Lat,Lon Distance(km) Time Diff (sec)
1 06/22/2024 04:05:48 -0.00,-104.69 0.77,-101.17 400.76 12
2 06/23/2024 16:23:37 0.00,-104.71 0.26,-105.77 120.41 80
3 06/24/2024 16:05:40 0.00,-104.71 -0.84,-100.79 446.34 80
4 06/26/2024 04:24:45 0.00,-104.69 -0.18,-105.42 83.87 80
5 06/27/2024 04:01:29 0.01,-104.69 0.92,-100.44 482.98 80
6 06/28/2024 16:23:05 -0.01,-104.71 0.09,-105.04 37.89 80
7 07/01/2024 04:18:54 0.01,-104.69 0.01,-104.69 0.73 80
8 07/03/2024 16:17:14 -0.01,-104.71 -0.12,-104.31 45.48 80
9 07/05/2024 04:38:58 0.01,-104.68 -0.93,-108.94 484.27 80
